EW3692 Weather Reports


time (UTC)temp
C
wind
direction
speed
KPH
gust
KPH
rain 1hr
cm
rain 24hr
cm
rain mn
cm
humidity
%
barometer
mb
20260906094553 18 105 0.0 0.0 0.00 0.00 0.00 92 1012.7
20260906093058 18 105 0.0 0.0 0.00 0.00 0.00 92 1012.8
20260906091552 18 105 0.0 0.0 0.00 0.00 0.00 92 1012.8
20260906090055 17 105 0.0 0.0 0.00 0.00 0.00 92 1012.7
20260906084555 17 105 0.0 0.0 0.00 0.00 0.00 92 1012.6
20260906083049 17 105 0.0 0.0 0.00 0.00 0.00 92 1012.7
20260906081548 18 105 0.0 0.0 0.00 0.00 0.00 92 1012.6
20260906080149 18 105 0.0 0.0 0.00 0.00 0.00 92 1012.7
20260906040012 19 105 0.0 0.0 0.00 0.00 0.00 93 1013.7
20260906034514 19 105 0.0 0.0 0.00 0.00 0.00 93 1013.8
20260906033016 19 105 0.0 0.0 0.00 0.00 0.00 93 1013.9
20260906031510 19 105 0.0 0.0 0.00 0.00 0.00 93 1013.8
20260906030009 20 105 0.0 0.0 0.00 0.00 0.00 93 1013.7
20260906024509 20 105 0.0 0.0 0.00 0.00 0.00 93 1013.7
20260906023009 20 105 0.0 0.0 0.00 0.00 0.00 93 1013.4
20260906021512 20 105 0.0 0.0 0.00 0.00 0.00 93 1013.5
20260906020007 20 105 0.0 0.0 0.00 0.00 0.00 93 1013.5
20260906014517 20 105 0.0 0.0 0.00 0.00 0.00 93 1013.1
20260906013006 20 105 0.0 0.0 0.00 0.00 0.00 92 1013.1
20260906011506 20 105 0.0 0.0 0.00 0.00 0.00 92 1012.9
20260906010006 20 105 0.0 0.0 0.00 0.00 0.00 92 1012.7
20260906004505 21 105 0.0 0.0 0.00 0.00 0.00 92 1012.6
20260906003005 21 105 0.0 0.0 0.00 0.00 0.00 92 1012.4
20260906001504 21 105 0.0 0.0 0.00 0.00 0.00 92 1012.5
20260906000004 22 105 0.0 0.0 0.00 0.00 0.00 92 1012.3
20260905234503 22 105 0.0 0.0 0.00 0.00 0.00 92 1012.1
20260905233003 22 105 0.0 0.0 0.00 0.00 0.00 91 1012.1
20260905231502 23 105 0.0 0.0 0.00 0.00 0.00 91 1012.2
20260905230001 23 105 0.0 0.0 0.00 0.00 0.00 90 1012.1
20260905224504 23 105 0.0 1.6 0.00 0.00 0.00 91 1012.2
20260905223001 23 105 0.0 0.0 0.00 0.00 0.00 90 1012.1
20260905221559 23 105 0.0 0.0 0.00 0.00 0.00 90 1012.0
20260905214600 25 105 0.0 0.0 0.00 0.00 0.00 88 1012.2
20260905213058 25 105 0.0 0.0 0.00 0.00 0.00 89 1012.1
20260905211555 24 105 0.0 0.0 0.00 0.00 0.00 89 1012.5
20260905210055 23 105 0.0 0.0 0.00 0.00 0.00 89 1012.6
20260905204555 23 105 0.0 0.0 0.00 0.00 0.00 90 1012.7
20260905203055 24 105 0.0 0.0 0.00 0.00 0.00 90 1012.8
20260905201606 24 105 0.0 1.6 0.00 0.00 0.00 90 1013.1
20260905200053 24 105 0.0 0.0 0.00 0.00 0.00 89 1012.7
20260905194553 24 105 0.0 0.0 0.00 0.00 0.00 88 1012.7
20260905193052 25 105 0.0 0.0 0.00 0.00 0.00 86 1012.4
20260905191553 26 105 0.0 0.0 0.00 0.00 0.00 84 1012.5
20260905190104 27 105 0.0 0.0 0.00 0.00 0.00 82 1012.9
20260905184605 27 104 0.0 4.8 0.00 0.00 0.00 87 1012.5
20260905183049 27 102 0.0 0.0 0.00 0.00 0.00 86 1012.8
20260905181547 27 102 0.0 1.6 0.00 0.00 0.00 86 1012.6
20260905180044 26 102 0.0 0.0 0.00 0.00 0.00 90 1013.3
20260905174553 26 102 0.0 1.6 0.00 0.00 0.00 84 1013.6
20260905173042 28 102 0.0 0.0 0.00 0.00 0.00 76 1013.6
20260905171541 28 102 0.0 1.6 0.00 0.00 0.00 76 1013.7
20260905170041 29 102 0.0 1.6 0.00 0.00 0.00 74 1013.6
20260905164539 29 142 0.0 4.8 0.00 0.00 0.00 71 1013.8
20260905163036 28 144 0.0 1.6 0.00 0.00 0.00 77 1014.3
20260905161534 28 144 0.0 1.6 0.00 0.00 0.00 74 1014.3
20260905160035 28 157 0.0 3.2 0.00 0.00 0.00 77 1014.3
20260905154531 28 186 0.0 1.6 0.00 0.00 0.00 77 1014.3
20260905153049 28 186 0.0 0.0 0.00 0.00 0.00 79 1014.6
20260905151527 27 186 0.0 3.2 0.00 0.00 0.00 82 1014.5
20260905150022 26 210 0.0 1.6 0.00 0.00 0.00 89 1014.9
20260905144519 25 210 0.0 0.0 0.00 0.00 0.00 96 1015.1
20260905143021 23 210 0.0 1.6 0.00 0.00 0.00 96 1015.1
20260905141510 22 210 0.0 0.0 0.00 0.00 0.00 93 1015.3
20260905140006 21 210 0.0 0.0 0.00 0.00 0.00 93 1015.5
20260905134502 20 217 0.0 0.0 0.00 0.00 0.00 92 1015.7
20260905133001 20 217 0.0 0.0 0.00 0.00 0.00 92 1015.8
20260905131626 19 217 0.0 0.0 0.00 0.00 0.00 92 1015.8
20260905130108 19 217 0.0 0.0 0.00 0.00 0.00 92 1015.9
20260905124557 18 217 0.0 0.0 0.00 0.00 0.00 92 1015.7
20260905123107 18 217 0.0 3.2 0.00 0.00 0.00 92 1015.6
20260905121555 18 217 0.0 0.0 0.00 0.00 0.00 92 1015.6
20260905120054 18 217 0.0 0.0 0.00 0.00 0.00 92 1015.6
20260905114554 18 217 0.0 3.2 0.00 0.00 0.00 92 1015.3
20260905113101 18 217 0.0 0.0 0.00 0.00 0.00 92 1015.0
20260905111558 18 217 0.0 0.0 0.00 0.00 0.00 92 1014.8
20260905110052 18 217 0.0 0.0 0.00 0.00 0.00 92 1014.7
20260905104552 18 217 0.0 3.2 0.00 0.00 0.00 92 1014.5
20260905103051 18 217 0.0 0.0 0.00 0.00 0.00 93 1014.4
20260905101606 18 217 0.0 3.2 0.00 0.00 0.00 93 1014.5
20260905100049 18 217 0.0 0.0 0.00 0.00 0.00 92 1014.4